owner,sensor,date,latitude,longitude,air_pressure(mBar),qcFlag 
TABS,ioos:station:wmo:42043:1,2002-11-01T00:09:00Z,28.9818,-94.9186,1019.49,11111222 
TABS,ioos:station:wmo:42043:1,2002-11-01T01:09:00Z,28.9818,-94.9186,1020.06,11111222 
TABS,ioos:station:wmo:42043:1,2002-11-01T01:39:00Z,28.9818,-94.9186,1020.12,11111222 
TABS,ioos:station:wmo:42043:1,2002-11-01T02:09:00Z,28.9818,-94.9186,1020.06,11111222 
TABS,ioos:station:wmo:42043:1,2002-11-01T02:39:00Z,28.9818,-94.9186,1020.44,11111222 
TABS,ioos:station:wmo:42043:1,2002-11-01T03:09:00Z,28.9818,-94.9186,1020.75,11111222 
TABS,ioos:station:wmo:42043:1,2002-11-01T04:09:00Z,28.9818,-94.9186,1021.01,11111222 
TABS,ioos:station:wmo:42043:1,2002-11-01T04:39:00Z,28.9818,-94.9186,1020.95,11111222 
TABS,ioos:station:wmo:42043:1,2002-11-01T05:09:00Z,28.9818,-94.9186,1020.5,11111222 
TABS,ioos:station:wmo:42043:1,2002-11-01T05:39:00Z,28.9818,-94.9186,1019.87,11111222 
TABS,ioos:station:wmo:42043:1,2002-11-01T06:09:00Z,28.9818,-94.9186,1019.87,11111222 
TABS,ioos:station:wmo:42043:1,2002-11-01T06:39:00Z,28.9818,-94.9186,1019.99,11111222 
TABS,ioos:station:wmo:42043:1,2002-11-01T07:09:00Z,28.9818,-94.9186,1020.12,11111222 
TABS,ioos:station:wmo:42043:1,2002-11-01T07:39:00Z,28.9818,-94.9186,1019.8,11111222 
TABS,ioos:station:wmo:42043:1,2002-11-01T08:09:00Z,28.9818,-94.9186,1019.68,11111222 
TABS,ioos:station:wmo:42043:1,2002-11-01T08:39:00Z,28.9818,-94.9186,1019.55,11111222 
TABS,ioos:station:wmo:42043:1,2002-11-01T09:09:00Z,28.9818,-94.9186,1019.49,11111222 
TABS,ioos:station:wmo:42043:1,2002-11-01T10:09:00Z,28.9818,-94.9186,1019.68,11111222 
TABS,ioos:station:wmo:42043:1,2002-11-01T10:39:00Z,28.9818,-94.9186,1019.61,11111222 
TABS,ioos:station:wmo:42043:1,2002-11-01T11:09:00Z,28.9818,-94.9186,1020.12,11111222 
TABS,ioos:station:wmo:42043:1,2002-11-01T11:39:00Z,28.9818,-94.9186,1020.5,11111222 
TABS,ioos:station:wmo:42043:1,2002-11-01T12:09:00Z,28.9818,-94.9186,1021.01,11111222 
TABS,ioos:station:wmo:42043:1,2002-11-01T12:39:00Z,28.9818,-94.9186,1021.33,11111222 
TABS,ioos:station:wmo:42043:1,2002-11-01T13:09:00Z,28.9818,-94.9186,1021.83,11111222 
TABS,ioos:station:wmo:42043:1,2002-11-01T13:39:00Z,28.9818,-94.9186,1022.21,11111222 
TABS,ioos:station:wmo:42043:1,2002-11-01T14:09:00Z,28.9818,-94.9186,1022.53,11111222 
TABS,ioos:station:wmo:42043:1,2002-11-01T14:39:00Z,28.9818,-94.9186,1022.91,11111222 
TABS,ioos:station:wmo:42043:1,2002-11-01T15:09:00Z,28.9818,-94.9186,1023.42,11111222 
TABS,ioos:station:wmo:42043:1,2002-11-01T16:09:00Z,28.9818,-94.9186,1023.8,11111222 
TABS,ioos:station:wmo:42043:1,2002-11-01T16:39:00Z,28.9818,-94.9186,1023.93,11111222 
TABS,ioos:station:wmo:42043:1,2002-11-01T17:09:00Z,28.9818,-94.9186,1024.06,11111222 
TABS,ioos:station:wmo:42043:1,2002-11-01T17:39:00Z,28.9818,-94.9186,1023.67,11111222 
TABS,ioos:station:wmo:42043:1,2002-11-01T18:09:00Z,28.9818,-94.9186,1023.17,11111222 
TABS,ioos:station:wmo:42043:1,2002-11-01T18:39:00Z,28.9818,-94.9186,1022.85,11111222 
TABS,ioos:station:wmo:42043:1,2002-11-01T19:09:00Z,28.9818,-94.9186,1022.53,11111222 
TABS,ioos:station:wmo:42043:1,2002-11-01T19:39:00Z,28.9818,-94.9186,1022.21,11111222 
TABS,ioos:station:wmo:42043:1,2002-11-01T20:09:00Z,28.9818,-94.9186,1021.96,11111222 
TABS,ioos:station:wmo:42043:1,2002-11-01T20:39:00Z,28.9818,-94.9186,1022.02,11111222 
TABS,ioos:station:wmo:42043:1,2002-11-01T21:09:00Z,28.9818,-94.9186,1022.09,11111222 
TABS,ioos:station:wmo:42043:1,2002-11-01T21:39:00Z,28.9818,-94.9186,1022.21,11111222 
TABS,ioos:station:wmo:42043:1,2002-11-01T22:09:00Z,28.9818,-94.9186,1022.28,11111222 
TABS,ioos:station:wmo:42043:1,2002-11-01T22:39:00Z,28.9818,-94.9186,1022.28,11111222 
TABS,ioos:station:wmo:42043:1,2002-11-01T23:09:00Z,28.9818,-94.9186,1022.6,11111222 
TABS,ioos:station:wmo:42043:1,2002-11-01T23:39:00Z,28.9818,-94.9186,1022.6,11111222 
TABS,ioos:station:wmo:42043:1,2002-11-02T00:09:00Z,28.9818,-94.9186,1022.79,11111222 
TABS,ioos:station:wmo:42043:1,2002-11-02T00:39:00Z,28.9818,-94.9186,1022.72,11111222 
TABS,ioos:station:wmo:42043:1,2002-11-02T01:09:00Z,28.9818,-94.9186,1022.98,11111222 
TABS,ioos:station:wmo:42043:1,2002-11-02T01:39:00Z,28.9818,-94.9186,1022.98,11111222 
TABS,ioos:station:wmo:42043:1,2002-11-02T02:09:00Z,28.9818,-94.9186,1022.91,11111222 
TABS,ioos:station:wmo:42043:1,2002-11-02T02:39:00Z,28.9818,-94.9186,1023.04,11111222 
TABS,ioos:station:wmo:42043:1,2002-11-02T03:09:00Z,28.9818,-94.9186,1023.17,11111222 
TABS,ioos:station:wmo:42043:1,2002-11-02T03:39:00Z,28.9818,-94.9186,1022.98,11111222 
TABS,ioos:station:wmo:42043:1,2002-11-02T04:09:00Z,28.9818,-94.9186,1023.23,11111222 
TABS,ioos:station:wmo:42043:1,2002-11-02T04:39:00Z,28.9818,-94.9186,1023.29,11111222 
TABS,ioos:station:wmo:42043:1,2002-11-02T05:09:00Z,28.9818,-94.9186,1023.23,11111222 
TABS,ioos:station:wmo:42043:1,2002-11-02T05:39:00Z,28.9818,-94.9186,1023.23,11111222 
TABS,ioos:station:wmo:42043:1,2002-11-02T06:09:00Z,28.9818,-94.9186,1022.72,11111222 
TABS,ioos:station:wmo:42043:1,2002-11-02T06:39:00Z,28.9818,-94.9186,1022.41,11111222 
TABS,ioos:station:wmo:42043:1,2002-11-02T07:09:00Z,28.9818,-94.9186,1021.96,11111222 
TABS,ioos:station:wmo:42043:1,2002-11-02T07:39:00Z,28.9818,-94.9186,1021.71,11111222 
TABS,ioos:station:wmo:42043:1,2002-11-02T08:09:00Z,28.9818,-94.9186,1021.33,11111222 
TABS,ioos:station:wmo:42043:1,2002-11-02T08:39:00Z,28.9818,-94.9186,1021.26,11111222 
TABS,ioos:station:wmo:42043:1,2002-11-02T09:09:00Z,28.9818,-94.9186,1021.58,11111222 
TABS,ioos:station:wmo:42043:1,2002-11-02T09:39:00Z,28.9818,-94.9186,1021.14,11111222 
TABS,ioos:station:wmo:42043:1,2002-11-02T10:09:00Z,28.9818,-94.9186,1020.95,11111222 
TABS,ioos:station:wmo:42043:1,2002-11-02T10:39:00Z,28.9818,-94.9186,1020.63,11111222 
TABS,ioos:station:wmo:42043:1,2002-11-02T11:09:00Z,28.9818,-94.9186,1020.63,11111222 
TABS,ioos:station:wmo:42043:1,2002-11-02T11:39:00Z,28.9818,-94.9186,1020.5,11111222 
TABS,ioos:station:wmo:42043:1,2002-11-02T12:09:00Z,28.9818,-94.9186,1020.88,11111222 
TABS,ioos:station:wmo:42043:1,2002-11-02T12:39:00Z,28.9818,-94.9186,1020.75,11111222 
TABS,ioos:station:wmo:42043:1,2002-11-02T13:09:00Z,28.9818,-94.9186,1021.01,11111222 
TABS,ioos:station:wmo:42043:1,2002-11-02T13:39:00Z,28.9818,-94.9186,1021.58,11111222 
TABS,ioos:station:wmo:42043:1,2002-11-02T14:09:00Z,28.9818,-94.9186,1021.64,11111222 
TABS,ioos:station:wmo:42043:1,2002-11-02T14:39:00Z,28.9818,-94.9186,1021.71,11111222 
TABS,ioos:station:wmo:42043:1,2002-11-02T15:09:00Z,28.9818,-94.9186,1021.64,11111222 
TABS,ioos:station:wmo:42043:1,2002-11-02T15:39:00Z,28.9818,-94.9186,1021.71,11111222 
TABS,ioos:station:wmo:42043:1,2002-11-02T16:09:00Z,28.9818,-94.9186,1021.45,11111222 
TABS,ioos:station:wmo:42043:1,2002-11-02T16:39:00Z,28.9818,-94.9186,1021.26,11111222 
TABS,ioos:station:wmo:42043:1,2002-11-02T17:09:00Z,28.9818,-94.9186,1020.95,11111222 
TABS,ioos:station:wmo:42043:1,2002-11-02T17:39:00Z,28.9818,-94.9186,1020.5,11111222 
TABS,ioos:station:wmo:42043:1,2002-11-02T18:09:00Z,28.9818,-94.9186,1019.93,11111222 
TABS,ioos:station:wmo:42043:1,2002-11-02T18:39:00Z,28.9818,-94.9186,1019.55,11111222 
TABS,ioos:station:wmo:42043:1,2002-11-02T19:09:00Z,28.9818,-94.9186,1018.98,11111222 
TABS,ioos:station:wmo:42043:1,2002-11-02T19:39:00Z,28.9818,-94.9186,1018.79,11111222 
TABS,ioos:station:wmo:42043:1,2002-11-02T20:09:00Z,28.9818,-94.9186,1018.47,11111222 
TABS,ioos:station:wmo:42043:1,2002-11-02T20:39:00Z,28.9818,-94.9186,1018.09,11111222 
TABS,ioos:station:wmo:42043:1,2002-11-02T21:09:00Z,28.9818,-94.9186,1017.9,11111222 
TABS,ioos:station:wmo:42043:1,2002-11-02T21:39:00Z,28.9818,-94.9186,1017.77,11111222 
TABS,ioos:station:wmo:42043:1,2002-11-02T22:09:00Z,28.9818,-94.9186,1017.64,11111222 
TABS,ioos:station:wmo:42043:1,2002-11-02T22:39:00Z,28.9818,-94.9186,1017.52,11111222 
TABS,ioos:station:wmo:42043:1,2002-11-02T23:09:00Z,28.9818,-94.9186,1017.2,11111222 
TABS,ioos:station:wmo:42043:1,2002-11-02T23:39:00Z,28.9818,-94.9186,1017.2,11111222 
TABS,ioos:station:wmo:42043:1,2002-11-03T00:09:00Z,28.9818,-94.9186,1017.26,11111222 
TABS,ioos:station:wmo:42043:1,2002-11-03T00:39:00Z,28.9818,-94.9186,1017.33,11111222 
TABS,ioos:station:wmo:42043:1,2002-11-03T01:09:00Z,28.9818,-94.9186,1017.39,11111222 
TABS,ioos:station:wmo:42043:1,2002-11-03T01:39:00Z,28.9818,-94.9186,1017.52,11111222 
TABS,ioos:station:wmo:42043:1,2002-11-03T02:09:00Z,28.9818,-94.9186,1017.52,11111222 
TABS,ioos:station:wmo:42043:1,2002-11-03T02:39:00Z,28.9818,-94.9186,1017.07,11111222 
TABS,ioos:station:wmo:42043:1,2002-11-03T03:09:00Z,28.9818,-94.9186,1017.01,11111222 
TABS,ioos:station:wmo:42043:1,2002-11-03T03:39:00Z,28.9818,-94.9186,1016.63,11111222 
TABS,ioos:station:wmo:42043:1,2002-11-03T04:09:00Z,28.9818,-94.9186,1016.57,11111222 
TABS,ioos:station:wmo:42043:1,2002-11-03T04:39:00Z,28.9818,-94.9186,1016.31,11111222 
TABS,ioos:station:wmo:42043:1,2002-11-03T05:09:00Z,28.9818,-94.9186,1016.25,11111222 
TABS,ioos:station:wmo:42043:1,2002-11-03T05:39:00Z,28.9818,-94.9186,1016.06,11111222 
TABS,ioos:station:wmo:42043:1,2002-11-03T06:09:00Z,28.9818,-94.9186,1015.49,11111222 
TABS,ioos:station:wmo:42043:1,2002-11-03T06:39:00Z,28.9818,-94.9186,1014.92,11111222 
TABS,ioos:station:wmo:42043:1,2002-11-03T07:09:00Z,28.9818,-94.9186,1014.66,11111222 
TABS,ioos:station:wmo:42043:1,2002-11-03T07:39:00Z,28.9818,-94.9186,1014.53,11111222 
TABS,ioos:station:wmo:42043:1,2002-11-03T08:09:00Z,28.9818,-94.9186,1014.15,11111222 
TABS,ioos:station:wmo:42043:1,2002-11-03T08:39:00Z,28.9818,-94.9186,1014.09,11111222 
TABS,ioos:station:wmo:42043:1,2002-11-03T09:09:00Z,28.9818,-94.9186,1013.9,11111222 
TABS,ioos:station:wmo:42043:1,2002-11-03T09:39:00Z,28.9818,-94.9186,1013.71,11111222 
TABS,ioos:station:wmo:42043:1,2002-11-03T10:09:00Z,28.9818,-94.9186,1013.71,11111222 
TABS,ioos:station:wmo:42043:1,2002-11-03T10:39:00Z,28.9818,-94.9186,1013.65,11111222 
TABS,ioos:station:wmo:42043:1,2002-11-03T11:09:00Z,28.9818,-94.9186,1013.9,11111222 
TABS,ioos:station:wmo:42043:1,2002-11-03T11:39:00Z,28.9818,-94.9186,1014.09,11111222 
TABS,ioos:station:wmo:42043:1,2002-11-03T12:09:00Z,28.9818,-94.9186,1014.34,11111222 
TABS,ioos:station:wmo:42043:1,2002-11-03T12:39:00Z,28.9818,-94.9186,1014.47,11111222 
TABS,ioos:station:wmo:42043:1,2002-11-03T13:09:00Z,28.9818,-94.9186,1014.72,11111222 
TABS,ioos:station:wmo:42043:1,2002-11-03T13:39:00Z,28.9818,-94.9186,1014.92,11111222 
TABS,ioos:station:wmo:42043:1,2002-11-03T14:09:00Z,28.9818,-94.9186,1014.92,11111222 
TABS,ioos:station:wmo:42043:1,2002-11-03T14:39:00Z,28.9818,-94.9186,1015.3,11111222 
TABS,ioos:station:wmo:42043:1,2002-11-03T15:09:00Z,28.9818,-94.9186,1015.68,11111222 
TABS,ioos:station:wmo:42043:1,2002-11-03T15:39:00Z,28.9818,-94.9186,1015.61,11111222 
TABS,ioos:station:wmo:42043:1,2002-11-03T16:09:00Z,28.9818,-94.9186,1015.55,11111222 
TABS,ioos:station:wmo:42043:1,2002-11-03T16:39:00Z,28.9818,-94.9186,1015.55,11111222 
TABS,ioos:station:wmo:42043:1,2002-11-03T17:09:00Z,28.9818,-94.9186,1015.3,11111222 
TABS,ioos:station:wmo:42043:1,2002-11-03T17:39:00Z,28.9818,-94.9186,1014.79,11111222 
TABS,ioos:station:wmo:42043:1,2002-11-03T18:09:00Z,28.9818,-94.9186,1014.47,11111222 
TABS,ioos:station:wmo:42043:1,2002-11-03T18:39:00Z,28.9818,-94.9186,1014.03,11111222 
TABS,ioos:station:wmo:42043:1,2002-11-03T19:09:00Z,28.9818,-94.9186,1013.58,11111222 
TABS,ioos:station:wmo:42043:1,2002-11-03T19:39:00Z,28.9818,-94.9186,1013.39,11111222 
TABS,ioos:station:wmo:42043:1,2002-11-03T20:09:00Z,28.9818,-94.9186,1013.33,11111222 
TABS,ioos:station:wmo:42043:1,2002-11-03T20:39:00Z,28.9818,-94.9186,1012.95,11111222 
TABS,ioos:station:wmo:42043:1,2002-11-03T21:09:00Z,28.9818,-94.9186,1013.07,11111222 
TABS,ioos:station:wmo:42043:1,2002-11-03T21:39:00Z,28.9818,-94.9186,1013.01,11111222 
TABS,ioos:station:wmo:42043:1,2002-11-03T22:09:00Z,28.9818,-94.9186,1013.26,11111222 
TABS,ioos:station:wmo:42043:1,2002-11-03T22:39:00Z,28.9818,-94.9186,1013.26,11111222 
TABS,ioos:station:wmo:42043:1,2002-11-03T23:09:00Z,28.9818,-94.9186,1013.39,11111222 
TABS,ioos:station:wmo:42043:1,2002-11-03T23:39:00Z,28.9818,-94.9186,1013.84,11111222 
TABS,ioos:station:wmo:42043:1,2002-11-04T00:09:00Z,28.9818,-94.9186,1014.09,11111222 
TABS,ioos:station:wmo:42043:1,2002-11-04T00:39:00Z,28.9818,-94.9186,1014.47,11111222 
TABS,ioos:station:wmo:42043:1,2002-11-04T01:09:00Z,28.9818,-94.9186,1014.53,11111222 
TABS,ioos:station:wmo:42043:1,2002-11-04T01:39:00Z,28.9818,-94.9186,1014.72,11111222 
TABS,ioos:station:wmo:42043:1,2002-11-04T02:09:00Z,28.9818,-94.9186,1014.92,11111222 
TABS,ioos:station:wmo:42043:1,2002-11-04T02:39:00Z,28.9818,-94.9186,1015.11,11111222 
TABS,ioos:station:wmo:42043:1,2002-11-04T03:09:00Z,28.9818,-94.9186,1015.42,11111222 
TABS,ioos:station:wmo:42043:1,2002-11-04T03:39:00Z,28.9818,-94.9186,1015.55,11111222 
TABS,ioos:station:wmo:42043:1,2002-11-04T04:09:00Z,28.9818,-94.9186,1015.61,11111222 
TABS,ioos:station:wmo:42043:1,2002-11-04T04:39:00Z,28.9818,-94.9186,1015.87,11111222 
TABS,ioos:station:wmo:42043:1,2002-11-04T05:09:00Z,28.9818,-94.9186,1015.8,11111222 
TABS,ioos:station:wmo:42043:1,2002-11-04T05:39:00Z,28.9818,-94.9186,1015.74,11111222 
TABS,ioos:station:wmo:42043:1,2002-11-04T06:09:00Z,28.9818,-94.9186,1015.49,11111222 
TABS,ioos:station:wmo:42043:1,2002-11-04T06:39:00Z,28.9818,-94.9186,1015.55,11111222 
TABS,ioos:station:wmo:42043:1,2002-11-04T07:09:00Z,28.9818,-94.9186,1015.42,11111222 
TABS,ioos:station:wmo:42043:1,2002-11-04T07:39:00Z,28.9818,-94.9186,1015.11,11111222 
TABS,ioos:station:wmo:42043:1,2002-11-04T08:09:00Z,28.9818,-94.9186,1015.42,11111222 
TABS,ioos:station:wmo:42043:1,2002-11-04T08:39:00Z,28.9818,-94.9186,1015.49,11111222 
TABS,ioos:station:wmo:42043:1,2002-11-04T09:09:00Z,28.9818,-94.9186,1015.11,11111222 
TABS,ioos:station:wmo:42043:1,2002-11-04T09:39:00Z,28.9818,-94.9186,1015.11,11111222 
TABS,ioos:station:wmo:42043:1,2002-11-04T10:09:00Z,28.9818,-94.9186,1015.11,11111222 
TABS,ioos:station:wmo:42043:1,2002-11-04T10:39:00Z,28.9818,-94.9186,1015.55,11111222 
TABS,ioos:station:wmo:42043:1,2002-11-04T11:09:00Z,28.9818,-94.9186,1015.49,11111222 
TABS,ioos:station:wmo:42043:1,2002-11-04T11:39:00Z,28.9818,-94.9186,1015.49,11111222 
TABS,ioos:station:wmo:42043:1,2002-11-04T12:09:00Z,28.9818,-94.9186,1015.68,11111222 
TABS,ioos:station:wmo:42043:1,2002-11-04T12:39:00Z,28.9818,-94.9186,1016.06,11111222 
TABS,ioos:station:wmo:42043:1,2002-11-04T13:09:00Z,28.9818,-94.9186,1015.04,11111222 
TABS,ioos:station:wmo:42043:1,2002-11-04T13:39:00Z,28.9818,-94.9186,1015.23,11111222 
TABS,ioos:station:wmo:42043:1,2002-11-04T14:09:00Z,28.9818,-94.9186,1015.36,11111222 
TABS,ioos:station:wmo:42043:1,2002-11-04T14:39:00Z,28.9818,-94.9186,1015.36,11111222 
TABS,ioos:station:wmo:42043:1,2002-11-04T15:09:00Z,28.9818,-94.9186,1015.42,11111222 
TABS,ioos:station:wmo:42043:1,2002-11-04T15:39:00Z,28.9818,-94.9186,1015.49,11111222 
TABS,ioos:station:wmo:42043:1,2002-11-04T16:09:00Z,28.9818,-94.9186,1015.11,11111222 
TABS,ioos:station:wmo:42043:1,2002-11-04T16:39:00Z,28.9818,-94.9186,1014.66,11111222 
TABS,ioos:station:wmo:42043:1,2002-11-04T17:09:00Z,28.9818,-94.9186,1014.15,11111222 
TABS,ioos:station:wmo:42043:1,2002-11-04T17:39:00Z,28.9818,-94.9186,1013.46,11111222 
TABS,ioos:station:wmo:42043:1,2002-11-04T18:09:00Z,28.9818,-94.9186,1013.01,11111222 
TABS,ioos:station:wmo:42043:1,2002-11-04T18:39:00Z,28.9818,-94.9186,1012.31,11111222 
TABS,ioos:station:wmo:42043:1,2002-11-04T19:09:00Z,28.9818,-94.9186,1011.42,11111222 
TABS,ioos:station:wmo:42043:1,2002-11-04T19:39:00Z,28.9818,-94.9186,1011.17,11111222 
TABS,ioos:station:wmo:42043:1,2002-11-04T20:09:00Z,28.9818,-94.9186,1010.73,11111222 
TABS,ioos:station:wmo:42043:1,2002-11-04T20:39:00Z,28.9818,-94.9186,1010.54,11111222 
TABS,ioos:station:wmo:42043:1,2002-11-04T21:09:00Z,28.9818,-94.9186,1010.54,11111222 
TABS,ioos:station:wmo:42043:1,2002-11-04T21:39:00Z,28.9818,-94.9186,1010.22,11111222 
TABS,ioos:station:wmo:42043:1,2002-11-04T22:09:00Z,28.9818,-94.9186,1010.03,11111222 
TABS,ioos:station:wmo:42043:1,2002-11-04T22:39:00Z,28.9818,-94.9186,1009.77,11111222 
TABS,ioos:station:wmo:42043:1,2002-11-04T23:09:00Z,28.9818,-94.9186,1009.52,11111222 
TABS,ioos:station:wmo:42043:1,2002-11-04T23:39:00Z,28.9818,-94.9186,1009.52,11111222 
TABS,ioos:station:wmo:42043:1,2002-11-05T00:09:00Z,28.9818,-94.9186,1009.39,11111222 
TABS,ioos:station:wmo:42043:1,2002-11-05T00:39:00Z,28.9818,-94.9186,1009.14,11111222 
TABS,ioos:station:wmo:42043:1,2002-11-05T01:09:00Z,28.9818,-94.9186,1008.88,11111222 
TABS,ioos:station:wmo:42043:1,2002-11-05T01:39:00Z,28.9818,-94.9186,1008.57,11111222 
TABS,ioos:station:wmo:42043:1,2002-11-05T02:09:00Z,28.9818,-94.9186,1008.44,11111222 
TABS,ioos:station:wmo:42043:1,2002-11-05T02:39:00Z,28.9818,-94.9186,1008.19,11111222 
TABS,ioos:station:wmo:42043:1,2002-11-05T03:09:00Z,28.9818,-94.9186,1008.06,11111222 
TABS,ioos:station:wmo:42043:1,2002-11-05T03:39:00Z,28.9818,-94.9186,1008.31,11111222 
TABS,ioos:station:wmo:42043:1,2002-11-05T04:09:00Z,28.9818,-94.9186,1008.88,11111222 
TABS,ioos:station:wmo:42043:1,2002-11-05T04:39:00Z,28.9818,-94.9186,1008.63,11111222 
TABS,ioos:station:wmo:42043:1,2002-11-05T05:09:00Z,28.9818,-94.9186,1008.63,11111222 
TABS,ioos:station:wmo:42043:1,2002-11-05T05:39:00Z,28.9818,-94.9186,1008.38,11111222 
TABS,ioos:station:wmo:42043:1,2002-11-05T06:09:00Z,28.9818,-94.9186,1008.25,11111222 
TABS,ioos:station:wmo:42043:1,2002-11-05T06:39:00Z,28.9818,-94.9186,1008.19,11111222 
TABS,ioos:station:wmo:42043:1,2002-11-05T07:09:00Z,28.9818,-94.9186,1008.19,11111222 
TABS,ioos:station:wmo:42043:1,2002-11-05T07:39:00Z,28.9818,-94.9186,1008.19,11111222 
TABS,ioos:station:wmo:42043:1,2002-11-05T08:09:00Z,28.9818,-94.9186,1007.87,11111222 
TABS,ioos:station:wmo:42043:1,2002-11-05T08:39:00Z,28.9818,-94.9186,1007.62,11111222 
TABS,ioos:station:wmo:42043:1,2002-11-05T09:09:00Z,28.9818,-94.9186,1007.68,11111222 
TABS,ioos:station:wmo:42043:1,2002-11-05T09:39:00Z,28.9818,-94.9186,1007.62,11111222 
TABS,ioos:station:wmo:42043:1,2002-11-05T10:09:00Z,28.9818,-94.9186,1007.74,11111222 
TABS,ioos:station:wmo:42043:1,2002-11-05T10:39:00Z,28.9818,-94.9186,1008.0,11111222 
TABS,ioos:station:wmo:42043:1,2002-11-05T11:09:00Z,28.9818,-94.9186,1009.14,11111222 
TABS,ioos:station:wmo:42043:1,2002-11-05T11:39:00Z,28.9818,-94.9186,1009.96,11111222 
TABS,ioos:station:wmo:42043:1,2002-11-05T12:09:00Z,28.9818,-94.9186,1010.03,11111222 
TABS,ioos:station:wmo:42043:1,2002-11-05T12:39:00Z,28.9818,-94.9186,1010.03,11111222 
TABS,ioos:station:wmo:42043:1,2002-11-05T13:09:00Z,28.9818,-94.9186,1010.47,11111222 
TABS,ioos:station:wmo:42043:1,2002-11-05T13:39:00Z,28.9818,-94.9186,1011.17,11111222 
TABS,ioos:station:wmo:42043:1,2002-11-05T14:09:00Z,28.9818,-94.9186,1011.8,11111222 
TABS,ioos:station:wmo:42043:1,2002-11-05T14:39:00Z,28.9818,-94.9186,1012.31,11111222 
TABS,ioos:station:wmo:42043:1,2002-11-05T15:09:00Z,28.9818,-94.9186,1012.12,11111222 
TABS,ioos:station:wmo:42043:1,2002-11-05T15:39:00Z,28.9818,-94.9186,1012.57,11111222 
TABS,ioos:station:wmo:42043:1,2002-11-05T16:09:00Z,28.9818,-94.9186,1012.31,11111222 
TABS,ioos:station:wmo:42043:1,2002-11-05T16:39:00Z,28.9818,-94.9186,1012.38,11111222 
TABS,ioos:station:wmo:42043:1,2002-11-05T17:09:00Z,28.9818,-94.9186,1012.19,11111222 
TABS,ioos:station:wmo:42043:1,2002-11-05T17:39:00Z,28.9818,-94.9186,1011.61,11111222 
TABS,ioos:station:wmo:42043:1,2002-11-05T18:09:00Z,28.9818,-94.9186,1011.49,11111222 
TABS,ioos:station:wmo:42043:1,2002-11-05T18:39:00Z,28.9818,-94.9186,1011.04,11111222 
TABS,ioos:station:wmo:42043:1,2002-11-05T19:09:00Z,28.9818,-94.9186,1010.85,11111222 
TABS,ioos:station:wmo:42043:1,2002-11-05T19:39:00Z,28.9818,-94.9186,1010.92,11111222 
TABS,ioos:station:wmo:42043:1,2002-11-05T20:09:00Z,28.9818,-94.9186,1010.47,11111222 
TABS,ioos:station:wmo:42043:1,2002-11-05T20:39:00Z,28.9818,-94.9186,1010.47,11111222 
TABS,ioos:station:wmo:42043:1,2002-11-05T21:09:00Z,28.9818,-94.9186,1010.79,11111222 
TABS,ioos:station:wmo:42043:1,2002-11-05T21:39:00Z,28.9818,-94.9186,1010.92,11111222 
TABS,ioos:station:wmo:42043:1,2002-11-05T22:09:00Z,28.9818,-94.9186,1011.04,11111222 
TABS,ioos:station:wmo:42043:1,2002-11-05T22:39:00Z,28.9818,-94.9186,1011.93,11111222 
TABS,ioos:station:wmo:42043:1,2002-11-05T23:09:00Z,28.9818,-94.9186,1012.25,11111222 
TABS,ioos:station:wmo:42043:1,2002-11-05T23:39:00Z,28.9818,-94.9186,1012.63,11111222 
TABS,ioos:station:wmo:42043:1,2002-11-06T00:09:00Z,28.9818,-94.9186,1012.95,11111222 
TABS,ioos:station:wmo:42043:1,2002-11-06T00:39:00Z,28.9818,-94.9186,1013.26,11111222 
TABS,ioos:station:wmo:42043:1,2002-11-06T01:09:00Z,28.9818,-94.9186,1013.71,11111222 
TABS,ioos:station:wmo:42043:1,2002-11-06T01:39:00Z,28.9818,-94.9186,1014.53,11111222 
TABS,ioos:station:wmo:42043:1,2002-11-06T02:09:00Z,28.9818,-94.9186,1015.23,11111222 
TABS,ioos:station:wmo:42043:1,2002-11-06T02:39:00Z,28.9818,-94.9186,1015.74,11111222 
TABS,ioos:station:wmo:42043:1,2002-11-06T03:39:00Z,28.9818,-94.9186,1017.07,11111222 
TABS,ioos:station:wmo:42043:1,2002-11-06T04:09:00Z,28.9818,-94.9186,1017.77,11111222 
TABS,ioos:station:wmo:42043:1,2002-11-06T04:39:00Z,28.9818,-94.9186,1018.34,11111222 
TABS,ioos:station:wmo:42043:1,2002-11-06T05:09:00Z,28.9818,-94.9186,1018.79,11111222 
TABS,ioos:station:wmo:42043:1,2002-11-06T06:39:00Z,28.9818,-94.9186,1019.87,11111222 
TABS,ioos:station:wmo:42043:1,2002-11-06T07:09:00Z,28.9818,-94.9186,1020.12,11111222 
TABS,ioos:station:wmo:42043:1,2002-11-06T07:39:00Z,28.9818,-94.9186,1020.37,11111222 
TABS,ioos:station:wmo:42043:1,2002-11-06T09:39:00Z,28.9818,-94.9186,1021.45,11111222 
TABS,ioos:station:wmo:42043:1,2002-11-06T10:09:00Z,28.9818,-94.9186,1021.83,11111222 
TABS,ioos:station:wmo:42043:1,2002-11-06T10:39:00Z,28.9818,-94.9186,1022.28,11111222 
TABS,ioos:station:wmo:42043:1,2002-11-06T11:09:00Z,28.9818,-94.9186,1022.85,11111222 
TABS,ioos:station:wmo:42043:1,2002-11-06T12:39:00Z,28.9818,-94.9186,1024.44,11111222 
TABS,ioos:station:wmo:42043:1,2002-11-06T13:09:00Z,28.9818,-94.9186,1024.82,11111222 
TABS,ioos:station:wmo:42043:1,2002-11-06T13:39:00Z,28.9818,-94.9186,1025.2,11111222 
TABS,ioos:station:wmo:42043:1,2002-11-06T15:39:00Z,28.9818,-94.9186,1026.09,11111222 
TABS,ioos:station:wmo:42043:1,2002-11-06T16:09:00Z,28.9818,-94.9186,1026.09,11111222 
TABS,ioos:station:wmo:42043:1,2002-11-06T16:39:00Z,28.9818,-94.9186,1026.09,11111222 
TABS,ioos:station:wmo:42043:1,2002-11-06T18:39:00Z,28.9818,-94.9186,1025.26,11111222 
TABS,ioos:station:wmo:42043:1,2002-11-06T19:09:00Z,28.9818,-94.9186,1024.88,11111222 
TABS,ioos:station:wmo:42043:1,2002-11-06T19:39:00Z,28.9818,-94.9186,1024.63,11111222 
TABS,ioos:station:wmo:42043:1,2002-11-06T21:39:00Z,28.9818,-94.9186,1024.18,11111222 
TABS,ioos:station:wmo:42043:1,2002-11-06T22:09:00Z,28.9818,-94.9186,1024.18,11111222 
TABS,ioos:station:wmo:42043:1,2002-11-06T22:39:00Z,28.9818,-94.9186,1024.12,11111222 
TABS,ioos:station:wmo:42043:1,2002-11-07T05:39:00Z,28.9818,-94.9186,1026.02,11111222 
TABS,ioos:station:wmo:42043:1,2002-11-07T06:09:00Z,28.9818,-94.9186,1025.77,11111222 
TABS,ioos:station:wmo:42043:1,2002-11-07T06:39:00Z,28.9818,-94.9186,1025.77,11111222 
TABS,ioos:station:wmo:42043:1,2002-11-07T07:09:00Z,28.9818,-94.9186,1025.71,11111222 
TABS,ioos:station:wmo:42043:1,2002-11-07T07:39:00Z,28.9818,-94.9186,1025.52,11111222 
TABS,ioos:station:wmo:42043:1,2002-11-07T08:09:00Z,28.9818,-94.9186,1025.39,11111222 
TABS,ioos:station:wmo:42043:1,2002-11-07T08:39:00Z,28.9818,-94.9186,1025.33,11111222 
TABS,ioos:station:wmo:42043:1,2002-11-07T09:09:00Z,28.9818,-94.9186,1025.33,11111222 
TABS,ioos:station:wmo:42043:1,2002-11-07T09:39:00Z,28.9818,-94.9186,1025.33,11111222 
TABS,ioos:station:wmo:42043:1,2002-11-07T10:09:00Z,28.9818,-94.9186,1025.26,11111222 
TABS,ioos:station:wmo:42043:1,2002-11-07T10:39:00Z,28.9818,-94.9186,1025.2,11111222 
TABS,ioos:station:wmo:42043:1,2002-11-07T11:09:00Z,28.9818,-94.9186,1025.39,11111222 
TABS,ioos:station:wmo:42043:1,2002-11-07T11:39:00Z,28.9818,-94.9186,1025.45,11111222 